Location: Newark
(13.8117°N, 3.6025°W)
Time: 22:54:02
(UTC+00:00)

Vanguard 2 - Pass Details

Date: 25 August 2019
Orbit: 554 x 2937 km, 32.9° (Epoch: 23 October)

Event Time Altitude Azimuth Distance (km) Brightness Sun altitude
Rises 20:56:40 0° 281° (W) 6,001 13.1 -34.8°
Reaches altitude 10° 21:01:00 10° 272° (W) 5,262 12.4 -35.7°
Maximum altitude 21:14:34 32° 216° (SW) 4,178 11.2 -38.7°
Enters shadow 21:22:01 24° 181° (S) 4,634 11.2 -40.3°
Drops below altitude 10° 21:29:09 10° 160° (SSE) 5,580 - -41.8°
Sets 21:34:03 0° 151° (SSE) 6,390 - -42.9°
